Year,Month,Day,Hour,Minute,Value (Times are PST for temperature in C)
2010,05,26,10,33,11.30
2010,05,26,10,34,11.30
2010,05,26,10,35,11.30
2010,05,26,10,36,11.30
2010,05,26,10,37,11.40
2010,05,26,10,38,11.40
2010,05,26,10,39,11.40
2010,05,26,10,40,11.40
2010,05,26,10,43,11.40
2010,05,26,10,46,11.40
2010,05,26,10,47,11.40
2010,05,26,10,48,11.40
2010,05,26,10,49,11.40
2010,05,26,10,50,11.30
2010,05,26,10,51,11.30
2010,05,26,10,52,11.30
2010,05,26,10,53,11.40
2010,05,26,10,54,11.40
2010,05,26,10,55,11.40
2010,05,26,10,56,11.40
2010,05,26,10,57,11.40
2010,05,26,10,58,11.40
2010,05,26,10,59,11.50
2010,05,26,11,02,11.50
2010,05,26,11,03,11.40
2010,05,26,11,04,11.40
2010,05,26,11,05,11.40
2010,05,26,11,06,11.50
2010,05,26,11,07,11.50
2010,05,26,11,08,11.50
2010,05,26,11,09,11.50
2010,05,26,11,10,11.50
2010,05,26,11,11,11.60
2010,05,26,11,12,11.60
2010,05,26,11,13,11.60
2010,05,26,11,14,11.60
2010,05,26,11,15,11.60
2010,05,26,11,16,11.60
2010,05,26,11,17,11.50
2010,05,26,11,18,11.50
2010,05,26,11,19,11.50
2010,05,26,11,20,11.50
2010,05,26,11,21,11.50
2010,05,26,11,22,11.50
2010,05,26,11,23,11.50
2010,05,26,11,24,11.50
2010,05,26,11,25,11.50
2010,05,26,11,26,11.40
2010,05,26,11,27,11.40
2010,05,26,11,28,11.30
2010,05,26,11,29,11.30
2010,05,26,11,30,11.30
2010,05,26,11,31,11.20
2010,05,26,11,32,11.20
2010,05,26,11,33,11.20
2010,05,26,11,34,11.20
2010,05,26,11,35,11.10
2010,05,26,11,36,11.10
2010,05,26,11,37,11.10
2010,05,26,11,38,11.10
2010,05,26,11,39,11.10
2010,05,26,11,40,11.10
2010,05,26,11,41,11.10
2010,05,26,11,42,11.10
2010,05,26,11,43,11.10
2010,05,26,11,44,11.10
2010,05,26,11,45,11.10
2010,05,26,11,46,11.10
2010,05,26,11,47,11.10
2010,05,26,11,48,11.10
2010,05,26,11,49,11.10
2010,05,26,11,50,11.20
2010,05,26,11,51,11.20
2010,05,26,11,52,11.30
2010,05,26,11,53,11.30
2010,05,26,11,54,11.30
2010,05,26,11,55,11.30
2010,05,26,11,56,11.30
2010,05,26,11,57,11.30
2010,05,26,11,58,11.40
2010,05,26,11,59,11.40
2010,05,26,12,00,11.40
2010,05,26,12,01,11.40
2010,05,26,12,02,11.40
2010,05,26,12,03,11.50
2010,05,26,12,04,11.50
2010,05,26,12,05,11.50
2010,05,26,12,06,11.50
2010,05,26,12,07,11.50
2010,05,26,12,08,11.50
2010,05,26,12,09,11.50
2010,05,26,12,10,11.40
2010,05,26,12,11,11.40
2010,05,26,12,12,11.40
2010,05,26,12,13,11.40
2010,05,26,12,14,11.40
2010,05,26,12,15,11.40
2010,05,26,12,16,11.40
2010,05,26,12,17,11.40
2010,05,26,12,18,11.40
2010,05,26,12,19,11.40
2010,05,26,12,20,11.50
2010,05,26,12,21,11.50
2010,05,26,12,22,11.60
2010,05,26,12,23,11.60
2010,05,26,12,24,11.70
2010,05,26,12,25,11.70
2010,05,26,12,26,11.70
2010,05,26,12,27,11.70
2010,05,26,12,28,11.70
2010,05,26,12,29,11.60
2010,05,26,12,30,11.70
2010,05,26,12,31,11.70
2010,05,26,12,32,11.70
2010,05,26,12,33,11.70
2010,05,26,12,34,11.70
2010,05,26,12,35,11.80
2010,05,26,12,36,11.80
2010,05,26,12,37,11.80
2010,05,26,12,38,11.80
2010,05,26,12,39,11.70
2010,05,26,12,40,11.70
2010,05,26,12,41,11.60
2010,05,26,12,42,11.60
2010,05,26,12,43,11.50
2010,05,26,12,44,11.40
2010,05,26,12,45,11.40
2010,05,26,12,46,11.40
2010,05,26,12,47,11.40
2010,05,26,12,48,11.50
2010,05,26,12,49,11.50
2010,05,26,12,50,11.50
2010,05,26,12,51,11.50
2010,05,26,12,52,11.60
2010,05,26,12,53,11.60
2010,05,26,12,54,11.50
2010,05,26,12,55,11.50
2010,05,26,12,56,11.50
2010,05,26,12,57,11.40
2010,05,26,12,58,11.50
2010,05,26,12,59,11.50
2010,05,26,13,00,11.50
2010,05,26,13,01,11.60
2010,05,26,13,02,11.60
2010,05,26,13,03,11.60
2010,05,26,13,04,11.70
2010,05,26,13,05,11.70
2010,05,26,13,06,11.80
2010,05,26,13,07,11.80
2010,05,26,13,08,11.80
2010,05,26,13,09,11.60
2010,05,26,13,10,11.60
2010,05,26,13,11,11.60
2010,05,26,13,12,11.60
2010,05,26,13,13,11.60
2010,05,26,13,14,11.60
2010,05,26,13,15,11.70
2010,05,26,13,16,11.70
2010,05,26,13,17,11.70
2010,05,26,13,18,11.60
2010,05,26,13,19,11.60
2010,05,26,13,20,11.60
2010,05,26,13,21,11.70
2010,05,26,13,22,11.70
2010,05,26,13,23,11.70
2010,05,26,13,24,11.70
2010,05,26,13,25,11.70
2010,05,26,13,26,11.70
2010,05,26,13,27,11.70
2010,05,26,13,28,11.60
2010,05,26,13,29,11.50
2010,05,26,13,30,11.40
2010,05,26,13,31,11.40
2010,05,26,13,32,11.40
2010,05,26,13,33,11.40
2010,05,26,13,34,11.40
2010,05,26,13,35,11.40
2010,05,26,13,36,11.40
2010,05,26,13,37,11.40
2010,05,26,13,38,11.40
2010,05,26,13,39,11.40
2010,05,26,13,40,11.40
2010,05,26,13,41,11.40
2010,05,26,13,42,11.40
2010,05,26,13,43,11.40
2010,05,26,13,44,11.40
2010,05,26,13,45,11.40
2010,05,26,13,46,11.40
2010,05,26,13,47,11.40
2010,05,26,13,48,11.40
2010,05,26,13,49,11.40
2010,05,26,13,50,11.40
2010,05,26,13,51,11.50
2010,05,26,13,52,11.50
2010,05,26,13,53,11.50
2010,05,26,13,54,11.60
2010,05,26,13,55,11.60
2010,05,26,13,56,11.60
2010,05,26,13,57,11.60
2010,05,26,13,58,11.70
2010,05,26,13,59,11.70
2010,05,26,14,00,11.60
2010,05,26,14,01,11.60
2010,05,26,14,02,11.60
2010,05,26,14,03,11.60
2010,05,26,14,04,11.50
2010,05,26,14,05,11.50
2010,05,26,14,06,11.50
2010,05,26,14,07,11.50
2010,05,26,14,08,11.50
2010,05,26,14,09,11.50
2010,05,26,14,10,11.50
2010,05,26,14,11,11.60
2010,05,26,14,12,11.60
2010,05,26,14,13,11.60
2010,05,26,14,14,11.60
2010,05,26,14,15,11.60
2010,05,26,14,16,11.60
2010,05,26,14,17,11.60
2010,05,26,14,18,11.60
2010,05,26,14,19,11.60
2010,05,26,14,20,11.60
2010,05,26,14,21,11.60
2010,05,26,14,22,11.60
2010,05,26,14,23,11.60
2010,05,26,14,24,11.60
2010,05,26,14,25,11.60
2010,05,26,14,26,11.60
2010,05,26,14,27,11.60
2010,05,26,14,28,11.50
2010,05,26,14,29,11.60
2010,05,26,14,30,11.60
2010,05,26,14,31,11.60
2010,05,26,14,32,11.50
2010,05,26,14,33,11.50
2010,05,26,14,34,11.40
2010,05,26,14,35,11.40
2010,05,26,14,36,11.40
2010,05,26,14,37,11.40
2010,05,26,14,38,11.40
2010,05,26,14,39,11.50
2010,05,26,14,40,11.50
2010,05,26,14,41,11.50
2010,05,26,14,42,11.60
2010,05,26,14,43,11.60
2010,05,26,14,44,11.60
2010,05,26,14,45,11.60
2010,05,26,14,46,11.60
2010,05,26,14,47,11.60
2010,05,26,14,48,11.60
2010,05,26,14,49,11.60
2010,05,26,14,50,11.60
2010,05,26,14,51,11.60
2010,05,26,14,52,11.60
2010,05,26,14,53,11.50
2010,05,26,14,54,11.50
2010,05,26,14,55,11.50
2010,05,26,14,56,11.50
2010,05,26,14,57,11.50
2010,05,26,14,58,11.50
2010,05,26,14,59,11.60
2010,05,26,15,00,11.60
2010,05,26,15,01,11.70
2010,05,26,15,02,11.70
2010,05,26,15,03,11.70
2010,05,26,15,04,11.80
2010,05,26,15,05,11.80
2010,05,26,15,06,11.90
2010,05,26,15,07,12.00
2010,05,26,15,08,12.10
2010,05,26,15,09,12.10
2010,05,26,15,10,12.10
2010,05,26,15,11,12.10
2010,05,26,15,12,12.10
2010,05,26,15,13,12.00
2010,05,26,15,14,11.90
2010,05,26,15,15,11.90
2010,05,26,15,16,11.90
2010,05,26,15,17,12.00
2010,05,26,15,18,12.00
2010,05,26,15,19,12.00
2010,05,26,15,20,12.00
2010,05,26,15,21,12.00
2010,05,26,15,22,12.00
2010,05,26,15,23,11.90
2010,05,26,15,24,11.90
2010,05,26,15,25,11.90
2010,05,26,15,26,11.90
2010,05,26,15,27,11.90
2010,05,26,15,28,12.00
2010,05,26,15,29,12.10
2010,05,26,15,30,12.00
2010,05,26,15,31,12.00
2010,05,26,15,32,12.10
2010,05,26,15,33,12.10
2010,05,26,15,34,12.10
2010,05,26,15,35,12.10
2010,05,26,15,36,12.10
2010,05,26,15,37,12.10
2010,05,26,15,38,12.10
2010,05,26,15,39,12.10
2010,05,26,15,40,12.00
2010,05,26,15,41,12.00
2010,05,26,15,42,11.90
2010,05,26,15,43,11.90
2010,05,26,15,44,11.90
2010,05,26,15,45,11.90
2010,05,26,15,46,12.00
2010,05,26,15,47,12.00
2010,05,26,15,48,12.10
2010,05,26,15,49,12.00
2010,05,26,15,50,12.00
2010,05,26,15,51,12.00
2010,05,26,15,52,12.00
2010,05,26,15,53,12.00
2010,05,26,15,54,12.00
2010,05,26,15,55,12.00
2010,05,26,15,56,12.10
2010,05,26,15,57,12.10
2010,05,26,15,58,12.00
2010,05,26,15,59,12.00
2010,05,26,16,00,11.90
2010,05,26,16,01,11.90
2010,05,26,16,02,11.90
2010,05,26,16,03,11.90
2010,05,26,16,04,11.90
2010,05,26,16,05,11.80
2010,05,26,16,06,11.80
2010,05,26,16,07,11.80
2010,05,26,16,08,11.80
2010,05,26,16,09,11.80
2010,05,26,16,10,11.80
2010,05,26,16,11,11.80
2010,05,26,16,12,11.80
2010,05,26,16,13,11.90
2010,05,26,16,14,11.90
2010,05,26,16,15,11.90
2010,05,26,16,16,11.90
2010,05,26,16,17,11.90
2010,05,26,16,18,11.90
2010,05,26,16,19,11.90
2010,05,26,16,20,11.90
2010,05,26,16,21,11.90
2010,05,26,16,22,11.90
2010,05,26,16,23,11.90
2010,05,26,16,24,11.80
2010,05,26,16,25,11.80
2010,05,26,16,26,11.90
2010,05,26,16,27,11.90
2010,05,26,16,28,12.00
2010,05,26,16,29,12.10
2010,05,26,16,30,12.10
2010,05,26,16,31,12.00
2010,05,26,16,32,12.00
2010,05,26,16,33,12.00
2010,05,26,16,34,12.00
2010,05,26,16,35,12.00
2010,05,26,16,36,12.00
2010,05,26,16,37,11.90
2010,05,26,16,38,11.90
2010,05,26,16,39,11.90
2010,05,26,16,40,11.90
2010,05,26,16,41,11.80
2010,05,26,16,42,11.90
2010,05,26,16,43,11.90
2010,05,26,16,44,11.90
2010,05,26,16,45,12.00
2010,05,26,16,46,12.10
2010,05,26,16,47,12.10
2010,05,26,16,48,12.20
2010,05,26,16,49,12.20
2010,05,26,16,50,12.10
2010,05,26,16,51,12.10
2010,05,26,16,52,12.10
2010,05,26,16,53,12.00
2010,05,26,16,54,12.00
2010,05,26,16,55,11.90
2010,05,26,16,56,11.90
2010,05,26,16,57,11.90
2010,05,26,16,58,11.90
2010,05,26,16,59,11.90
2010,05,26,17,00,11.90
2010,05,26,17,01,12.00
2010,05,26,17,02,11.90
2010,05,26,17,03,11.90
2010,05,26,17,04,11.90
2010,05,26,17,05,12.00
2010,05,26,17,06,12.00
2010,05,26,17,07,12.10
2010,05,26,17,08,12.10
2010,05,26,17,09,12.10
2010,05,26,17,10,12.10
2010,05,26,17,11,12.20
2010,05,26,17,12,12.20
2010,05,26,17,13,12.20
2010,05,26,17,14,12.20
2010,05,26,17,15,12.20
2010,05,26,17,16,12.20
2010,05,26,17,17,12.20
2010,05,26,17,18,12.20
2010,05,26,17,19,12.20
2010,05,26,17,20,12.20
2010,05,26,17,21,12.10
2010,05,26,17,22,12.10
2010,05,26,17,23,12.20
2010,05,26,17,24,12.20
2010,05,26,17,25,12.20
2010,05,26,17,26,12.20
2010,05,26,17,27,12.20
2010,05,26,17,28,12.20
2010,05,26,17,29,12.20
2010,05,26,17,30,12.20
2010,05,26,17,31,12.20
2010,05,26,17,32,12.20
2010,05,26,17,33,12.30
2010,05,26,17,34,12.30
2010,05,26,17,35,12.30
2010,05,26,17,36,12.30
2010,05,26,17,37,12.20
2010,05,26,17,38,12.20
2010,05,26,17,39,12.30
2010,05,26,17,40,12.30
2010,05,26,17,41,12.30
2010,05,26,17,42,12.30
2010,05,26,17,43,12.30
2010,05,26,17,44,12.30
2010,05,26,17,45,12.30
2010,05,26,17,46,12.30
2010,05,26,17,47,12.30
2010,05,26,17,48,12.30
2010,05,26,17,49,12.30
2010,05,26,17,50,12.30
2010,05,26,17,51,12.20
2010,05,26,17,52,12.30
2010,05,26,17,53,12.30
2010,05,26,17,54,12.30
2010,05,26,17,55,12.20
2010,05,26,17,56,12.20
2010,05,26,17,57,12.20
2010,05,26,17,58,12.20
2010,05,26,17,59,12.20
2010,05,26,18,00,12.20
2010,05,26,18,01,12.20
2010,05,26,18,02,12.20
2010,05,26,18,03,12.20
2010,05,26,18,04,12.20
2010,05,26,18,05,12.20
2010,05,26,18,06,12.20
2010,05,26,18,07,12.20
2010,05,26,18,08,12.20
2010,05,26,18,09,12.20
2010,05,26,18,10,12.20
2010,05,26,18,11,12.30
2010,05,26,18,12,12.30
2010,05,26,18,13,12.20
2010,05,26,18,14,12.20
2010,05,26,18,15,12.20
2010,05,26,18,16,12.20
2010,05,26,18,17,12.20
2010,05,26,18,18,12.20
2010,05,26,18,19,12.20
2010,05,26,18,20,12.20
2010,05,26,18,21,12.20
2010,05,26,18,22,12.20
2010,05,26,18,23,12.20
2010,05,26,18,24,12.20
2010,05,26,18,25,12.20
2010,05,26,18,26,12.30
2010,05,26,18,27,12.20
2010,05,26,18,28,12.20
2010,05,26,18,29,12.20
2010,05,26,18,30,12.10
2010,05,26,18,31,12.10
2010,05,26,18,32,12.10
2010,05,26,18,33,12.10
2010,05,26,18,34,12.10
2010,05,26,18,35,12.10
2010,05,26,18,36,12.10
2010,05,26,18,37,12.10
2010,05,26,18,38,12.10
2010,05,26,18,39,12.10
2010,05,26,18,40,12.10
2010,05,26,18,41,12.10
2010,05,26,18,42,12.10
2010,05,26,18,43,12.10
2010,05,26,18,44,12.10
2010,05,26,18,45,12.10
2010,05,26,18,46,12.20
2010,05,26,18,47,12.20
2010,05,26,18,48,12.20
2010,05,26,18,49,12.30
2010,05,26,18,50,12.30
2010,05,26,18,51,12.30
2010,05,26,18,52,12.30
2010,05,26,18,53,12.30
2010,05,26,18,54,12.30
2010,05,26,18,55,12.30
2010,05,26,18,56,12.30
2010,05,26,18,57,12.30
2010,05,26,18,58,12.40
2010,05,26,18,59,12.40
2010,05,26,19,00,12.40
2010,05,26,19,01,12.40
2010,05,26,19,02,12.50
2010,05,26,19,03,12.50
2010,05,26,19,04,12.50
2010,05,26,19,05,12.50
2010,05,26,19,06,12.50
2010,05,26,19,07,12.50
2010,05,26,19,08,12.50
2010,05,26,19,09,12.50
2010,05,26,19,10,12.50
2010,05,26,19,11,12.50
2010,05,26,19,12,12.50
2010,05,26,19,13,12.50
2010,05,26,19,14,12.40
2010,05,26,19,15,12.40
2010,05,26,19,16,12.40
2010,05,26,19,17,12.40
2010,05,26,19,18,12.30
2010,05,26,19,19,12.30
2010,05,26,19,20,12.30
2010,05,26,19,21,12.30
2010,05,26,19,22,12.30
2010,05,26,19,23,12.30
2010,05,26,19,24,12.20
2010,05,26,19,25,12.20
2010,05,26,19,26,12.20
2010,05,26,19,27,12.20
2010,05,26,19,28,12.20
2010,05,26,19,29,12.20
2010,05,26,19,30,12.20
2010,05,26,19,31,12.20
2010,05,26,19,32,12.20
2010,05,26,19,33,12.20
2010,05,26,19,34,12.10
2010,05,26,19,35,12.10
2010,05,26,19,36,12.10
2010,05,26,19,37,12.10
2010,05,26,19,38,12.10
2010,05,26,19,39,12.10
2010,05,26,19,40,12.10
2010,05,26,19,41,12.10
2010,05,26,19,42,12.10
2010,05,26,19,43,12.10
2010,05,26,19,44,12.10
2010,05,26,19,45,12.10
2010,05,26,19,46,12.10
2010,05,26,19,47,12.10
2010,05,26,19,48,12.10
2010,05,26,19,49,12.10
2010,05,26,19,50,12.10
2010,05,26,19,51,12.10
2010,05,26,19,52,12.10
2010,05,26,19,53,12.10
2010,05,26,19,54,12.20
2010,05,26,19,55,12.20
2010,05,26,19,56,12.20
2010,05,26,19,57,12.20
2010,05,26,19,58,12.20
2010,05,26,19,59,12.20
2010,05,26,20,00,12.20
2010,05,26,20,01,12.20
2010,05,26,20,02,12.20
2010,05,26,20,03,12.20
2010,05,26,20,04,12.20
2010,05,26,20,05,12.20
2010,05,26,20,06,12.20
2010,05,26,20,07,12.30
2010,05,26,20,08,12.30
2010,05,26,20,09,12.30
2010,05,26,20,10,12.30
2010,05,26,20,11,12.30
2010,05,26,20,12,12.30
2010,05,26,20,13,12.20
2010,05,26,20,14,12.20
2010,05,26,20,15,12.20
2010,05,26,20,16,12.20
2010,05,26,20,17,12.30
2010,05,26,20,18,12.30
2010,05,26,20,19,12.30
2010,05,26,20,20,12.30
2010,05,26,20,21,12.30
2010,05,26,20,22,12.30
2010,05,26,20,23,12.30
2010,05,26,20,24,12.20
2010,05,26,20,25,12.20
2010,05,26,20,26,12.20
2010,05,26,20,27,12.10
2010,05,26,20,28,12.10
2010,05,26,20,29,12.00
2010,05,26,20,30,12.00
2010,05,26,20,31,11.90
2010,05,26,20,32,11.90
2010,05,26,20,33,11.90
2010,05,26,20,34,11.90
2010,05,26,20,35,11.80
2010,05,26,20,36,11.80
2010,05,26,20,37,11.70
2010,05,26,20,38,11.70
2010,05,26,20,39,11.60
2010,05,26,20,40,11.60
2010,05,26,20,41,11.50
2010,05,26,20,42,11.50
2010,05,26,20,43,11.50
2010,05,26,20,44,11.40
2010,05,26,20,45,11.40
2010,05,26,20,46,11.40
2010,05,26,20,47,11.40
2010,05,26,20,48,11.40
2010,05,26,20,49,11.40
2010,05,26,20,50,11.40
2010,05,26,20,51,11.40
2010,05,26,20,52,11.40
2010,05,26,20,53,11.40
2010,05,26,20,54,11.40
2010,05,26,20,55,11.40
2010,05,26,20,56,11.40
2010,05,26,20,57,11.40
2010,05,26,20,58,11.40
2010,05,26,20,59,11.40
2010,05,26,21,00,11.40
2010,05,26,21,01,11.40
2010,05,26,21,02,11.40
2010,05,26,21,03,11.40
2010,05,26,21,04,11.40
2010,05,26,21,05,11.30
2010,05,26,21,06,11.30
2010,05,26,21,07,11.30
2010,05,26,21,08,11.30
2010,05,26,21,09,11.30
2010,05,26,21,10,11.30
2010,05,26,21,11,11.30
2010,05,26,21,12,11.30
2010,05,26,21,13,11.30
2010,05,26,21,14,11.30
2010,05,26,21,15,11.30
2010,05,26,21,16,11.20
2010,05,26,21,17,11.20
2010,05,26,21,18,11.20
2010,05,26,21,19,11.20
2010,05,26,21,20,11.20
2010,05,26,21,21,11.20
2010,05,26,21,22,11.20
2010,05,26,21,23,11.20
2010,05,26,21,24,11.20
2010,05,26,21,25,11.20
2010,05,26,21,26,11.20
2010,05,26,21,27,11.20
2010,05,26,21,28,11.20
2010,05,26,21,29,11.20
2010,05,26,21,30,11.20
2010,05,26,21,31,11.10
2010,05,26,21,32,11.10
2010,05,26,21,33,11.10
2010,05,26,21,34,11.10
2010,05,26,21,35,11.10
2010,05,26,21,36,11.10
2010,05,26,21,37,11.10
2010,05,26,21,38,11.10
2010,05,26,21,39,11.10
2010,05,26,21,40,11.10
2010,05,26,21,41,11.10
2010,05,26,21,42,11.10
2010,05,26,21,43,11.10
2010,05,26,21,44,11.10
2010,05,26,21,45,11.10
2010,05,26,21,46,11.00
2010,05,26,21,47,11.00
2010,05,26,21,48,11.00
2010,05,26,21,49,11.00
2010,05,26,21,50,11.00
2010,05,26,21,51,11.00
2010,05,26,21,52,11.00
2010,05,26,21,53,11.00
2010,05,26,21,54,10.90
2010,05,26,21,55,10.90
2010,05,26,21,56,10.90
2010,05,26,21,57,11.00
2010,05,26,21,58,11.00
2010,05,26,21,59,10.90
2010,05,26,22,00,11.00
2010,05,26,22,01,11.00
2010,05,26,22,02,11.00
2010,05,26,22,03,11.00
2010,05,26,22,04,11.00
2010,05,26,22,05,11.00
2010,05,26,22,06,11.00
2010,05,26,22,07,11.00
2010,05,26,22,08,11.00
2010,05,26,22,09,11.00
2010,05,26,22,10,11.00
2010,05,26,22,11,11.00
2010,05,26,22,12,11.00
2010,05,26,22,13,10.90
2010,05,26,22,14,11.00
2010,05,26,22,15,11.00
2010,05,26,22,16,11.00
2010,05,26,22,17,11.00
2010,05,26,22,18,11.00
2010,05,26,22,19,11.00
2010,05,26,22,20,11.00
2010,05,26,22,21,11.00
2010,05,26,22,22,11.00
2010,05,26,22,23,11.00
2010,05,26,22,24,11.00
2010,05,26,22,25,11.00
2010,05,26,22,26,11.00
2010,05,26,22,27,11.00
2010,05,26,22,28,11.00
2010,05,26,22,29,11.00
2010,05,26,22,30,11.00
2010,05,26,22,31,11.10
2010,05,26,22,32,11.10
2010,05,26,22,33,11.10
2010,05,26,22,34,11.10
2010,05,26,22,35,11.10
2010,05,26,22,36,11.10
2010,05,26,22,37,11.10
2010,05,26,22,38,11.10
2010,05,26,22,39,11.00
2010,05,26,22,40,11.00
2010,05,26,22,41,11.00
2010,05,26,22,42,11.00
2010,05,26,22,43,11.00
2010,05,26,22,44,11.00
2010,05,26,22,45,10.90
2010,05,26,22,46,10.90
2010,05,26,22,47,10.90
2010,05,26,22,48,10.90
2010,05,26,22,49,10.90
2010,05,26,22,50,10.90
2010,05,26,22,51,10.90
2010,05,26,22,52,10.90
2010,05,26,22,53,10.90
2010,05,26,22,54,10.90
2010,05,26,22,55,10.90
2010,05,26,22,56,10.90
2010,05,26,22,57,10.90
2010,05,26,22,58,10.90
2010,05,26,22,59,10.90
2010,05,26,23,00,10.90
2010,05,26,23,01,10.90
2010,05,26,23,02,10.90
2010,05,26,23,03,10.90
2010,05,26,23,04,10.90
2010,05,26,23,05,10.90
2010,05,26,23,06,10.90
2010,05,26,23,07,10.90
2010,05,26,23,08,10.90
2010,05,26,23,09,10.90
2010,05,26,23,10,10.90
2010,05,26,23,11,10.90
2010,05,26,23,12,10.90
2010,05,26,23,13,10.90
2010,05,26,23,14,10.90
2010,05,26,23,15,10.90
2010,05,26,23,16,10.90
2010,05,26,23,17,10.90
2010,05,26,23,18,10.90
2010,05,26,23,19,10.90
2010,05,26,23,20,10.90
2010,05,26,23,21,10.90
2010,05,26,23,22,10.90
2010,05,26,23,23,10.90
2010,05,26,23,24,10.90
2010,05,26,23,25,10.90
2010,05,26,23,26,10.90
2010,05,26,23,27,10.90
2010,05,26,23,28,10.90
2010,05,26,23,29,10.90
2010,05,26,23,30,10.90
2010,05,26,23,31,10.90
2010,05,26,23,32,10.90
2010,05,26,23,33,10.90
2010,05,26,23,34,10.90
2010,05,26,23,35,10.90
2010,05,26,23,36,10.90
2010,05,26,23,37,10.90
2010,05,26,23,38,10.90
2010,05,26,23,39,10.90
2010,05,26,23,40,10.90
2010,05,26,23,41,10.90
2010,05,26,23,42,10.90
2010,05,26,23,43,10.90
2010,05,26,23,44,10.90
2010,05,26,23,45,10.90
2010,05,26,23,46,10.90
2010,05,26,23,47,11.00
2010,05,26,23,48,11.00
2010,05,26,23,49,11.00
2010,05,26,23,50,11.00
2010,05,26,23,51,11.00
2010,05,26,23,52,11.00
2010,05,26,23,53,11.00
2010,05,26,23,54,11.00
2010,05,26,23,55,11.00
2010,05,26,23,56,11.00
2010,05,26,23,57,11.00
2010,05,26,23,58,11.00
2010,05,26,23,59,11.00
